Weather in Berezovka

Russia / Kaliningrad Oblast     54°25′32″N   20°42′12″E
temp.,
°C
wind,
m/s
gust,
m/s
humid.,
%
clouds,
%
prec.,
mm/h
press.,
hPa
HPBL,
m
28 february, sun
sun2823:000wnw49930 0.0 1032264
02:00+2w488443 0.0 1031279
05:00+2w5118778 0.0 1029324
08:00+3wnw6129576 0.0 1029534
11:00+4wnw71190100 0.0 1028596
14:00+5wnw61083100 0.0 1028665
17:00+5nw598245 0.0 1028470
20:00+3wnw499131 0.0 1029275
1 march, mon
mon123:00+2nw410910 0.0 1030243
02:00+2nw34920 0.0 103291
05:00+1nw23930 0.0 103153
08:00+1w23920 0.0 103344
11:00+6w35770 0.0 1033282
14:00+9wsw47650 0.0 1032506
17:00+9wsw49710 0.0 1030568
20:00+5wsw412852 0.0 1030376
2 march, tue
tue223:00+4w514770 0.0 1029452
02:00+3w513900 0.0 1029436
05:00+3w6149321 0.0 1027493
08:00+4wnw7129253 0.0 1027536
11:00+5wnw6118592 0.0 1028490
14:00+8nw587254 0.0 1029594
17:00+6nw47750 0.0 1029464
20:00+3nw35910 0.0 1031138
3 march, wed
wed323:00+1nnw228655 0.0 103230
02:00+1nnw128230 0.0 103222
05:00+1w1278100 0.0 103121
08:00+1sw1276100 0.0 103122
11:00+5ssw346016 0.0 1029343
14:00+8sw35628 0.0 1027655
17:00+7wsw37779 0.0 1024570
20:00+4sw410889 0.0 1022221
4 march, thu
thu423:00+3wsw4118251 0.0 1019250
02:00+2w4108826 0.0 1017254
05:00+1wsw39920 0.0 1014204
08:00+1wsw38940 0.0 1012214
11:00+5wnw478317 0.0 1012587
14:00+5nw467958 0.1 1012756
17:00+1n6994100 0.2 1012485
20:000n4974100 0.2 1013636